sat.trackr.live / text

‹ back to catalog

PRAETORIAN SDA_609

NORAD 65572 · 2025-203H

PAYLOAD ACTIVE UNKNOWN

§ Identity

Operator
Country
US
Launch date
2025-09-10
Launch site
AFWTR
Launch vehicle
Mass (kg)
RCS (m²)

Purposes: military

External: N2YO · Heavens-Above · Gunter

§ Orbital elements

Epoch: 2026-05-25T02:18:10.118016Z

Period
104.03 min
Inclination
81.3070°
Eccentricity
0.0005896
Mean motion
13.84281841 rev/d
Perigee alt
944.4 km
Apogee alt
953.1 km
Semi-major
7,326.9 km
B*
1.2485e-4
RAAN
32.1734°
Arg perigee
254.8263°
Mean anomaly
105.2242°
Rev number
3,550

§ Raw data

PRAETORIAN SDA_6091 65572U 25203H   26145.09595044  .00000151  00000+0  12485-3 0  99902 65572  81.3070  32.1734 0005896 254.8263 105.2242 13.84281841 35503

JSON: /api/v1/satellites/65572 · /tle

For live sub-satellite position, see the globe view (requires WebGL).

§ Visibility from observer

Set your observer location to see the next 7 days of passes ≥ 10°. The values pass through the URL so the page stays shareable.

No JS? Fill the form by hand. The geolocation button needs JavaScript.